Location: Unspecified
(0.0000°N, 0.0000°E)
Time: 12:58:15
(UTC+00:00)

CZ-4 DEB - Visible Passes

Search period start: 18 June 2024 00:00
Search period end: 28 June 2024 00:00
Orbit: 786 x 975 km, 99.1° (Epoch: 17 June)

Date Brightness Start Highest point End Pass type
(mag) Time Alt. Az. Time Alt. Az. Time Alt. Az.
18 Jun ? 19:30:22 35° ESE 19:31:34 39° ENE 19:37:09 10° N visible
18 Jun ? 21:13:01 17° W 21:13:01 17° W 21:16:24 10° WNW visible
19 Jun ? 19:27:23 33° ESE 19:28:40 36° ENE 19:34:10 10° NNE visible
19 Jun ? 21:10:01 19° W 21:10:01 19° W 21:13:45 10° WNW visible
20 Jun ? 19:24:24 30° ESE 19:25:45 34° ENE 19:31:11 10° NNE visible
20 Jun ? 21:07:02 21° W 21:07:02 21° W 21:11:05 10° WNW visible
21 Jun ? 19:21:24 28° ESE 19:22:51 31° ENE 19:28:09 10° NNE visible
21 Jun ? 21:04:03 22° W 21:04:03 22° W 21:08:23 10° NW visible
22 Jun ? 19:18:25 26° ESE 19:19:57 29° ENE 19:25:08 10° NNE visible
22 Jun ? 21:01:04 24° W 21:01:04 24° W 21:05:40 10° NW visible
23 Jun ? 19:15:26 24° E 19:17:03 27° ENE 19:22:05 10° NNE visible
23 Jun ? 20:58:04 26° WSW 20:58:04 26° WSW 21:02:56 10° NW visible
24 Jun ? 19:12:26 22° E 19:14:08 25° ENE 19:19:02 10° NNE visible
24 Jun ? 20:55:05 28° WSW 20:55:05 28° WSW 21:00:11 10° NW visible
25 Jun ? 19:09:27 21° E 19:11:14 24° ENE 19:15:57 10° NNE visible
25 Jun ? 20:52:06 30° WSW 20:52:09 30° WSW 20:57:25 10° NW visible
26 Jun ? 19:06:28 19° E 19:08:19 22° ENE 19:12:51 10° NNE visible
26 Jun ? 20:49:07 32° WSW 20:49:14 32° WSW 20:54:38 10° NW visible
27 Jun ? 19:03:29 18° E 19:05:24 20° ENE 19:09:45 10° NNE visible
27 Jun ? 20:46:07 35° WSW 20:46:19 35° WSW 20:51:49 10° NW visible
